owner,sensor,date,latitude,longitude,vertical_datum,sea_water_temperature,qcFlag
Chevron,ioos:station:wmo:42372:2,2021-08-15T18:43:00Z,27.7790,-90.5190,10.6,30.3,11111222
Chevron,ioos:station:wmo:42372:2,2021-08-15T18:53:00Z,27.7790,-90.5190,10.7,30.3,11111222
Chevron,ioos:station:wmo:42372:2,2021-08-15T19:03:00Z,27.7790,-90.5190,10.7,30.3,11111222
Chevron,ioos:station:wmo:42372:2,2021-08-15T19:13:00Z,27.7790,-90.5190,10.6,30.2,11111222
Chevron,ioos:station:wmo:42372:2,2021-08-15T19:23:00Z,27.7790,-90.5190,10.8,30.3,11111222
Chevron,ioos:station:wmo:42372:2,2021-08-15T19:33:00Z,27.7790,-90.5190,10.8,30.3,11111222
Chevron,ioos:station:wmo:42372:2,2021-08-15T19:43:00Z,27.7790,-90.5190,10.9,30.2,11111222
Chevron,ioos:station:wmo:42372:2,2021-08-15T19:53:00Z,27.7790,-90.5190,10.8,30.4,11111222
Chevron,ioos:station:wmo:42372:2,2021-08-15T20:03:00Z,27.7790,-90.5190,10.6,30.4,11111222
Chevron,ioos:station:wmo:42372:2,2021-08-15T20:13:00Z,27.7790,-90.5190,10.7,30.4,11111222
Chevron,ioos:station:wmo:42372:2,2021-08-15T20:23:00Z,27.7790,-90.5190,10.8,30.5,11111222
Chevron,ioos:station:wmo:42372:2,2021-08-15T20:33:00Z,27.7790,-90.5190,10.7,30.5,11111222
Chevron,ioos:station:wmo:42372:2,2021-08-15T20:43:00Z,27.7790,-90.5190,10.6,30.4,11111222
Chevron,ioos:station:wmo:42372:2,2021-08-15T20:53:00Z,27.7790,-90.5190,10.6,30.4,11111222
Chevron,ioos:station:wmo:42372:2,2021-08-15T21:03:00Z,27.7790,-90.5190,10.7,30.4,11111222
Chevron,ioos:station:wmo:42372:2,2021-08-15T21:13:00Z,27.7790,-90.5190,10.8,30.5,11111222
Chevron,ioos:station:wmo:42372:2,2021-08-15T21:23:00Z,27.7790,-90.5190,10.8,30.4,11111222
Chevron,ioos:station:wmo:42372:2,2021-08-15T21:33:00Z,27.7790,-90.5190,10.6,30.4,11111222
Chevron,ioos:station:wmo:42372:2,2021-08-15T21:43:00Z,27.7790,-90.5190,10.8,30.3,11111222
Chevron,ioos:station:wmo:42372:2,2021-08-15T21:53:00Z,27.7790,-90.5190,10.6,30.2,11111222
Chevron,ioos:station:wmo:42372:2,2021-08-15T22:03:00Z,27.7790,-90.5190,10.7,30.3,11111222
Chevron,ioos:station:wmo:42372:2,2021-08-15T22:13:00Z,27.7790,-90.5190,10.8,30.4,11111222
Chevron,ioos:station:wmo:42372:2,2021-08-15T22:23:00Z,27.7790,-90.5190,10.6,30.5,11111222
Chevron,ioos:station:wmo:42372:2,2021-08-15T22:33:00Z,27.7790,-90.5190,10.7,30.5,11111222
Chevron,ioos:station:wmo:42372:2,2021-08-15T22:43:00Z,27.7790,-90.5190,10.7,30.5,11111222
Chevron,ioos:station:wmo:42372:2,2021-08-15T22:53:00Z,27.7790,-90.5190,10.8,30.5,11111222
Chevron,ioos:station:wmo:42372:2,2021-08-15T23:03:00Z,27.7790,-90.5190,10.8,30.5,11111222
Chevron,ioos:station:wmo:42372:2,2021-08-15T23:13:00Z,27.7790,-90.5190,10.7,30.6,11111222
Chevron,ioos:station:wmo:42372:2,2021-08-15T23:23:00Z,27.7790,-90.5190,10.8,30.5,11111222
Chevron,ioos:station:wmo:42372:2,2021-08-15T23:33:00Z,27.7790,-90.5190,10.7,30.4,11111222
Chevron,ioos:station:wmo:42372:2,2021-08-15T23:43:00Z,27.7790,-90.5190,10.8,30.4,11111222
Chevron,ioos:station:wmo:42372:2,2021-08-15T23:53:00Z,27.7790,-90.5190,10.7,30.3,11111222
Chevron,ioos:station:wmo:42372:2,2021-08-16T00:03:00Z,27.7790,-90.5190,10.8,30.3,11111222
Chevron,ioos:station:wmo:42372:2,2021-08-16T00:13:00Z,27.7790,-90.5190,10.8,30.4,11111222
Chevron,ioos:station:wmo:42372:2,2021-08-16T00:23:00Z,27.7790,-90.5190,10.7,30.5,11111222
Chevron,ioos:station:wmo:42372:2,2021-08-16T00:33:00Z,27.7790,-90.5190,10.8,30.5,11111222
Chevron,ioos:station:wmo:42372:2,2021-08-16T00:43:00Z,27.7790,-90.5190,10.8,30.6,11111222
Chevron,ioos:station:wmo:42372:2,2021-08-16T00:53:00Z,27.7790,-90.5190,10.9,30.5,11111222
Chevron,ioos:station:wmo:42372:2,2021-08-16T01:03:00Z,27.7790,-90.5190,10.6,30.6,11111222
Chevron,ioos:station:wmo:42372:2,2021-08-16T01:13:00Z,27.7790,-90.5190,10.7,30.6,11111222
Chevron,ioos:station:wmo:42372:2,2021-08-16T01:23:00Z,27.7790,-90.5190,10.7,30.5,11111222
Chevron,ioos:station:wmo:42372:2,2021-08-16T01:33:00Z,27.7790,-90.5190,10.9,30.5,11111222
Chevron,ioos:station:wmo:42372:2,2021-08-16T01:43:00Z,27.7790,-90.5190,10.8,30.5,11111222
Chevron,ioos:station:wmo:42372:2,2021-08-16T01:53:00Z,27.7790,-90.5190,10.7,30.5,11111222
Chevron,ioos:station:wmo:42372:2,2021-08-16T02:03:00Z,27.7790,-90.5190,10.8,30.3,11111222
Chevron,ioos:station:wmo:42372:2,2021-08-16T02:13:00Z,27.7790,-90.5190,10.7,30.3,11111222
Chevron,ioos:station:wmo:42372:2,2021-08-16T02:23:00Z,27.7790,-90.5190,10.9,30.3,11111222
Chevron,ioos:station:wmo:42372:2,2021-08-16T02:33:00Z,27.7790,-90.5190,10.9,30.3,11111222
Chevron,ioos:station:wmo:42372:2,2021-08-16T02:43:00Z,27.7790,-90.5190,10.8,30.4,11111222
Chevron,ioos:station:wmo:42372:2,2021-08-16T02:53:00Z,27.7790,-90.5190,10.8,30.4,11111222
Chevron,ioos:station:wmo:42372:2,2021-08-16T03:03:00Z,27.7790,-90.5190,10.8,30.3,11111222
Chevron,ioos:station:wmo:42372:2,2021-08-16T03:13:00Z,27.7790,-90.5190,10.8,30.3,11111222
Chevron,ioos:station:wmo:42372:2,2021-08-16T03:23:00Z,27.7790,-90.5190,10.8,30.4,11111222
Chevron,ioos:station:wmo:42372:2,2021-08-16T03:33:00Z,27.7790,-90.5190,10.8,30.4,11111222
Chevron,ioos:station:wmo:42372:2,2021-08-16T03:43:00Z,27.7790,-90.5190,10.8,30.4,11111222
Chevron,ioos:station:wmo:42372:2,2021-08-16T03:53:00Z,27.7790,-90.5190,10.8,30.4,11111222
Chevron,ioos:station:wmo:42372:2,2021-08-16T04:03:00Z,27.7790,-90.5190,10.8,30.4,11111222
Chevron,ioos:station:wmo:42372:2,2021-08-16T04:13:00Z,27.7790,-90.5190,10.9,30.4,11111222
Chevron,ioos:station:wmo:42372:2,2021-08-16T04:23:00Z,27.7790,-90.5190,10.9,30.5,11111222
Chevron,ioos:station:wmo:42372:2,2021-08-16T04:33:00Z,27.7790,-90.5190,10.7,30.5,11111222
Chevron,ioos:station:wmo:42372:2,2021-08-16T04:43:00Z,27.7790,-90.5190,10.9,30.5,11111222
Chevron,ioos:station:wmo:42372:2,2021-08-16T04:53:00Z,27.7790,-90.5190,10.8,30.5,11111222
Chevron,ioos:station:wmo:42372:2,2021-08-16T05:03:00Z,27.7790,-90.5190,10.8,30.5,11111222
Chevron,ioos:station:wmo:42372:2,2021-08-16T05:13:00Z,27.7790,-90.5190,10.9,30.5,11111222
Chevron,ioos:station:wmo:42372:2,2021-08-16T05:23:00Z,27.7790,-90.5190,10.8,30.5,11111222
Chevron,ioos:station:wmo:42372:2,2021-08-16T05:33:00Z,27.7790,-90.5190,10.8,30.5,11111222
Chevron,ioos:station:wmo:42372:2,2021-08-16T05:43:00Z,27.7790,-90.5190,10.8,30.5,11111222
Chevron,ioos:station:wmo:42372:2,2021-08-16T05:53:00Z,27.7790,-90.5190,10.8,30.5,11111222
Chevron,ioos:station:wmo:42372:2,2021-08-16T06:03:00Z,27.7790,-90.5190,10.9,30.4,11111222
Chevron,ioos:station:wmo:42372:2,2021-08-16T06:13:00Z,27.7790,-90.5190,10.8,30.5,11111222
Chevron,ioos:station:wmo:42372:2,2021-08-16T06:23:00Z,27.7790,-90.5190,10.8,30.5,11111222
Chevron,ioos:station:wmo:42372:2,2021-08-16T06:33:00Z,27.7790,-90.5190,10.7,30.5,11111222
Chevron,ioos:station:wmo:42372:2,2021-08-16T06:43:00Z,27.7790,-90.5190,10.7,30.5,11111222
Chevron,ioos:station:wmo:42372:2,2021-08-16T06:53:00Z,27.7790,-90.5190,10.8,30.4,11111222
Chevron,ioos:station:wmo:42372:2,2021-08-16T07:03:00Z,27.7790,-90.5190,10.8,30.5,11111222
Chevron,ioos:station:wmo:42372:2,2021-08-16T07:13:00Z,27.7790,-90.5190,10.8,30.6,11111222
Chevron,ioos:station:wmo:42372:2,2021-08-16T07:23:00Z,27.7790,-90.5190,10.8,30.5,11111222
Chevron,ioos:station:wmo:42372:2,2021-08-16T07:33:00Z,27.7790,-90.5190,10.8,30.6,11111222
Chevron,ioos:station:wmo:42372:2,2021-08-16T07:43:00Z,27.7790,-90.5190,10.9,30.6,11111222
Chevron,ioos:station:wmo:42372:2,2021-08-16T07:53:00Z,27.7790,-90.5190,10.8,30.5,11111222
Chevron,ioos:station:wmo:42372:2,2021-08-16T08:03:00Z,27.7790,-90.5190,10.8,30.5,11111222
Chevron,ioos:station:wmo:42372:2,2021-08-16T08:13:00Z,27.7790,-90.5190,10.9,30.4,11111222
Chevron,ioos:station:wmo:42372:2,2021-08-16T08:23:00Z,27.7790,-90.5190,10.8,30.4,11111222
Chevron,ioos:station:wmo:42372:2,2021-08-16T08:33:00Z,27.7790,-90.5190,10.8,30.3,11111222
Chevron,ioos:station:wmo:42372:2,2021-08-16T08:43:00Z,27.7790,-90.5190,10.9,30.3,11111222
Chevron,ioos:station:wmo:42372:2,2021-08-16T08:53:00Z,27.7790,-90.5190,11.0,30.2,11111222
Chevron,ioos:station:wmo:42372:2,2021-08-16T09:03:00Z,27.7790,-90.5190,10.9,30.1,11111222
Chevron,ioos:station:wmo:42372:2,2021-08-16T09:13:00Z,27.7790,-90.5190,10.8,30.1,11111222
Chevron,ioos:station:wmo:42372:2,2021-08-16T09:23:00Z,27.7790,-90.5190,10.8,30.2,11111222
Chevron,ioos:station:wmo:42372:2,2021-08-16T09:33:00Z,27.7790,-90.5190,10.9,30.3,11111222
Chevron,ioos:station:wmo:42372:2,2021-08-16T09:43:00Z,27.7790,-90.5190,10.7,30.3,11111222
Chevron,ioos:station:wmo:42372:2,2021-08-16T09:53:00Z,27.7790,-90.5190,10.9,30.3,11111222
Chevron,ioos:station:wmo:42372:2,2021-08-16T10:03:00Z,27.7790,-90.5190,10.8,30.3,11111222
Chevron,ioos:station:wmo:42372:2,2021-08-16T10:13:00Z,27.7790,-90.5190,10.8,30.3,11111222
Chevron,ioos:station:wmo:42372:2,2021-08-16T10:23:00Z,27.7790,-90.5190,10.8,30.2,11111222
Chevron,ioos:station:wmo:42372:2,2021-08-16T10:33:00Z,27.7790,-90.5190,10.7,30.2,11111222
Chevron,ioos:station:wmo:42372:2,2021-08-16T10:43:00Z,27.7790,-90.5190,10.8,30.2,11111222
Chevron,ioos:station:wmo:42372:2,2021-08-16T10:53:00Z,27.7790,-90.5190,10.9,30.1,11111222
Chevron,ioos:station:wmo:42372:2,2021-08-16T11:03:00Z,27.7790,-90.5190,10.8,30.1,11111222
Chevron,ioos:station:wmo:42372:2,2021-08-16T11:13:00Z,27.7790,-90.5190,10.9,30.1,11111222
Chevron,ioos:station:wmo:42372:2,2021-08-16T11:23:00Z,27.7790,-90.5190,10.8,30.1,11111222
Chevron,ioos:station:wmo:42372:2,2021-08-16T11:33:00Z,27.7790,-90.5190,10.9,30.1,11111222
Chevron,ioos:station:wmo:42372:2,2021-08-16T11:43:00Z,27.7790,-90.5190,10.8,30.1,11111222
Chevron,ioos:station:wmo:42372:2,2021-08-16T11:53:00Z,27.7790,-90.5190,10.8,30.1,11111222
Chevron,ioos:station:wmo:42372:2,2021-08-16T12:03:00Z,27.7790,-90.5190,10.8,30.1,11111222
Chevron,ioos:station:wmo:42372:2,2021-08-16T12:13:00Z,27.7790,-90.5190,10.9,30.2,11111222
Chevron,ioos:station:wmo:42372:2,2021-08-16T12:23:00Z,27.7790,-90.5190,10.8,30.1,11111222
Chevron,ioos:station:wmo:42372:2,2021-08-16T12:33:00Z,27.7790,-90.5190,11.0,30.1,11111222
Chevron,ioos:station:wmo:42372:2,2021-08-16T12:43:00Z,27.7790,-90.5190,10.8,30.1,11111222
Chevron,ioos:station:wmo:42372:2,2021-08-16T12:53:00Z,27.7790,-90.5190,10.8,30.1,11111222
Chevron,ioos:station:wmo:42372:2,2021-08-16T13:03:00Z,27.7790,-90.5190,10.9,30.0,11111222
Chevron,ioos:station:wmo:42372:2,2021-08-16T13:13:00Z,27.7790,-90.5190,10.9,30.1,11111222
Chevron,ioos:station:wmo:42372:2,2021-08-16T13:23:00Z,27.7790,-90.5190,10.8,30.1,11111222
Chevron,ioos:station:wmo:42372:2,2021-08-16T13:33:00Z,27.7790,-90.5190,10.7,30.0,11111222
Chevron,ioos:station:wmo:42372:2,2021-08-16T13:43:00Z,27.7790,-90.5190,10.8,30.0,11111222
Chevron,ioos:station:wmo:42372:2,2021-08-16T13:53:00Z,27.7790,-90.5190,10.8,30.2,11111222
Chevron,ioos:station:wmo:42372:2,2021-08-16T14:03:00Z,27.7790,-90.5190,10.7,30.2,11111222
Chevron,ioos:station:wmo:42372:2,2021-08-16T14:13:00Z,27.7790,-90.5190,10.8,30.2,11111222
Chevron,ioos:station:wmo:42372:2,2021-08-16T14:23:00Z,27.7790,-90.5190,10.8,30.2,11111222
Chevron,ioos:station:wmo:42372:2,2021-08-16T14:33:00Z,27.7790,-90.5190,10.8,30.3,11111222
Chevron,ioos:station:wmo:42372:2,2021-08-16T14:43:00Z,27.7790,-90.5190,10.7,30.3,11111222
Chevron,ioos:station:wmo:42372:2,2021-08-16T14:53:00Z,27.7790,-90.5190,10.7,30.3,11111222
Chevron,ioos:station:wmo:42372:2,2021-08-16T15:03:00Z,27.7790,-90.5190,10.7,30.3,11111222
Chevron,ioos:station:wmo:42372:2,2021-08-16T15:13:00Z,27.7790,-90.5190,10.6,30.3,11111222
Chevron,ioos:station:wmo:42372:2,2021-08-16T15:23:00Z,27.7790,-90.5190,10.7,30.3,11111222
Chevron,ioos:station:wmo:42372:2,2021-08-16T15:33:00Z,27.7790,-90.5190,10.8,30.3,11111222
Chevron,ioos:station:wmo:42372:2,2021-08-16T15:43:00Z,27.7790,-90.5190,10.6,30.2,11111222
Chevron,ioos:station:wmo:42372:2,2021-08-16T15:53:00Z,27.7790,-90.5190,10.7,30.2,11111222
Chevron,ioos:station:wmo:42372:2,2021-08-16T16:03:00Z,27.7790,-90.5190,10.7,30.2,11111222
Chevron,ioos:station:wmo:42372:2,2021-08-16T16:13:00Z,27.7790,-90.5190,10.8,30.3,11111222
Chevron,ioos:station:wmo:42372:2,2021-08-16T16:23:00Z,27.7790,-90.5190,10.8,30.3,11111222
Chevron,ioos:station:wmo:42372:2,2021-08-16T16:33:00Z,27.7790,-90.5190,10.8,30.3,11111222
Chevron,ioos:station:wmo:42372:2,2021-08-16T16:43:00Z,27.7790,-90.5190,10.7,30.3,11111222
Chevron,ioos:station:wmo:42372:2,2021-08-16T16:53:00Z,27.7790,-90.5190,10.7,30.3,11111222
Chevron,ioos:station:wmo:42372:2,2021-08-16T17:03:00Z,27.7790,-90.5190,10.8,30.3,11111222
Chevron,ioos:station:wmo:42372:2,2021-08-16T17:13:00Z,27.7790,-90.5190,10.6,30.4,11111222
Chevron,ioos:station:wmo:42372:2,2021-08-16T17:23:00Z,27.7790,-90.5190,10.5,30.4,11111222
Chevron,ioos:station:wmo:42372:2,2021-08-16T17:33:00Z,27.7790,-90.5190,10.7,30.4,11111222
Chevron,ioos:station:wmo:42372:2,2021-08-16T17:43:00Z,27.7790,-90.5190,10.7,30.5,11111222
Chevron,ioos:station:wmo:42372:2,2021-08-16T17:53:00Z,27.7790,-90.5190,10.7,30.5,11111222
Chevron,ioos:station:wmo:42372:2,2021-08-16T18:03:00Z,27.7790,-90.5190,10.6,30.5,11111222
Chevron,ioos:station:wmo:42372:2,2021-08-16T18:13:00Z,27.7790,-90.5190,10.6,30.5,11111222
Chevron,ioos:station:wmo:42372:2,2021-08-16T18:23:00Z,27.7790,-90.5190,10.7,30.5,11111222
Chevron,ioos:station:wmo:42372:2,2021-08-16T18:33:00Z,27.7790,-90.5190,10.7,30.6,11111222
Chevron,ioos:station:wmo:42372:2,2021-08-16T18:43:00Z,27.7790,-90.5190,10.7,30.6,11111222
Chevron,ioos:station:wmo:42372:2,2021-08-16T18:53:00Z,27.7790,-90.5190,10.6,30.6,11111222
Chevron,ioos:station:wmo:42372:2,2021-08-16T19:03:00Z,27.7790,-90.5190,10.6,30.6,11111222
Chevron,ioos:station:wmo:42372:2,2021-08-16T19:13:00Z,27.7790,-90.5190,10.6,30.6,11111222
Chevron,ioos:station:wmo:42372:2,2021-08-16T19:23:00Z,27.7790,-90.5190,10.6,30.6,11111222
Chevron,ioos:station:wmo:42372:2,2021-08-16T19:33:00Z,27.7790,-90.5190,10.7,30.5,11111222
Chevron,ioos:station:wmo:42372:2,2021-08-16T19:43:00Z,27.7790,-90.5190,10.6,30.5,11111222
Chevron,ioos:station:wmo:42372:2,2021-08-16T19:53:00Z,27.7790,-90.5190,10.8,30.5,11111222
Chevron,ioos:station:wmo:42372:2,2021-08-16T20:03:00Z,27.7790,-90.5190,10.7,30.5,11111222
Chevron,ioos:station:wmo:42372:2,2021-08-16T20:13:00Z,27.7790,-90.5190,10.7,30.4,11111222
Chevron,ioos:station:wmo:42372:2,2021-08-16T20:23:00Z,27.7790,-90.5190,10.6,30.5,11111222
Chevron,ioos:station:wmo:42372:2,2021-08-16T20:33:00Z,27.7790,-90.5190,10.6,30.5,11111222
Chevron,ioos:station:wmo:42372:2,2021-08-16T20:43:00Z,27.7790,-90.5190,10.6,30.5,11111222
Chevron,ioos:station:wmo:42372:2,2021-08-16T20:53:00Z,27.7790,-90.5190,10.7,30.3,11111222
Chevron,ioos:station:wmo:42372:2,2021-08-16T21:03:00Z,27.7790,-90.5190,10.8,30.2,11111222
Chevron,ioos:station:wmo:42372:2,2021-08-16T21:13:00Z,27.7790,-90.5190,10.7,30.1,11111222
Chevron,ioos:station:wmo:42372:2,2021-08-16T21:23:00Z,27.7790,-90.5190,10.9,29.9,11111222
Chevron,ioos:station:wmo:42372:2,2021-08-16T21:33:00Z,27.7790,-90.5190,10.8,30.0,11111222
Chevron,ioos:station:wmo:42372:2,2021-08-16T21:43:00Z,27.7790,-90.5190,10.7,29.9,11111222
Chevron,ioos:station:wmo:42372:2,2021-08-16T21:53:00Z,27.7790,-90.5190,10.7,30.0,11111222
Chevron,ioos:station:wmo:42372:2,2021-08-16T22:04:00Z,27.7790,-90.5190,10.7,30.3,11111222
Chevron,ioos:station:wmo:42372:2,2021-08-16T22:14:00Z,27.7790,-90.5190,10.6,30.2,11111222
Chevron,ioos:station:wmo:42372:2,2021-08-16T22:24:00Z,27.7790,-90.5190,10.7,30.3,11111222
Chevron,ioos:station:wmo:42372:2,2021-08-16T22:34:00Z,27.7790,-90.5190,10.7,30.3,11111222
Chevron,ioos:station:wmo:42372:2,2021-08-16T22:44:00Z,27.7790,-90.5190,10.7,30.3,11111222
Chevron,ioos:station:wmo:42372:2,2021-08-16T22:54:00Z,27.7790,-90.5190,10.7,30.2,11111222
Chevron,ioos:station:wmo:42372:2,2021-08-16T23:04:00Z,27.7790,-90.5190,10.6,30.3,11111222
Chevron,ioos:station:wmo:42372:2,2021-08-16T23:14:00Z,27.7790,-90.5190,10.8,30.3,11111222
Chevron,ioos:station:wmo:42372:2,2021-08-16T23:24:00Z,27.7790,-90.5190,10.6,30.4,11111222
Chevron,ioos:station:wmo:42372:2,2021-08-16T23:34:00Z,27.7790,-90.5190,10.6,30.4,11111222
Chevron,ioos:station:wmo:42372:2,2021-08-16T23:44:00Z,27.7790,-90.5190,10.7,30.4,11111222
Chevron,ioos:station:wmo:42372:2,2021-08-16T23:54:00Z,27.7790,-90.5190,10.7,30.4,11111222
Chevron,ioos:station:wmo:42372:2,2021-08-17T00:04:00Z,27.7790,-90.5190,10.6,30.5,11111222
Chevron,ioos:station:wmo:42372:2,2021-08-17T00:14:00Z,27.7790,-90.5190,10.6,30.5,11111222
Chevron,ioos:station:wmo:42372:2,2021-08-17T00:24:00Z,27.7790,-90.5190,10.7,30.6,11111222
Chevron,ioos:station:wmo:42372:2,2021-08-17T00:34:00Z,27.7790,-90.5190,10.7,30.5,11111222
Chevron,ioos:station:wmo:42372:2,2021-08-17T00:44:00Z,27.7790,-90.5190,10.7,30.6,11111222
Chevron,ioos:station:wmo:42372:2,2021-08-17T00:54:00Z,27.7790,-90.5190,10.7,30.6,11111222
Chevron,ioos:station:wmo:42372:2,2021-08-17T01:04:00Z,27.7790,-90.5190,10.7,30.6,11111222
Chevron,ioos:station:wmo:42372:2,2021-08-17T01:14:00Z,27.7790,-90.5190,10.8,30.5,11111222
Chevron,ioos:station:wmo:42372:2,2021-08-17T01:24:00Z,27.7790,-90.5190,10.7,30.5,11111222
Chevron,ioos:station:wmo:42372:2,2021-08-17T01:34:00Z,27.7790,-90.5190,10.7,30.5,11111222
Chevron,ioos:station:wmo:42372:2,2021-08-17T01:44:00Z,27.7790,-90.5190,10.6,30.5,11111222
Chevron,ioos:station:wmo:42372:2,2021-08-17T01:54:00Z,27.7790,-90.5190,10.6,30.5,11111222
Chevron,ioos:station:wmo:42372:2,2021-08-17T02:04:00Z,27.7790,-90.5190,10.6,30.5,11111222
Chevron,ioos:station:wmo:42372:2,2021-08-17T02:14:00Z,27.7790,-90.5190,10.7,30.4,11111222
Chevron,ioos:station:wmo:42372:2,2021-08-17T02:24:00Z,27.7790,-90.5190,10.8,30.3,11111222
Chevron,ioos:station:wmo:42372:2,2021-08-17T02:34:00Z,27.7790,-90.5190,10.8,30.3,11111222
Chevron,ioos:station:wmo:42372:2,2021-08-17T02:44:00Z,27.7790,-90.5190,10.8,30.3,11111222
Chevron,ioos:station:wmo:42372:2,2021-08-17T02:54:00Z,27.7790,-90.5190,10.7,30.3,11111222
Chevron,ioos:station:wmo:42372:2,2021-08-17T03:04:00Z,27.7790,-90.5190,10.7,30.3,11111222
Chevron,ioos:station:wmo:42372:2,2021-08-17T03:14:00Z,27.7790,-90.5190,10.7,30.3,11111222
Chevron,ioos:station:wmo:42372:2,2021-08-17T03:24:00Z,27.7790,-90.5190,10.8,30.0,11111222
Chevron,ioos:station:wmo:42372:2,2021-08-17T03:34:00Z,27.7790,-90.5190,10.8,30.0,11111222
Chevron,ioos:station:wmo:42372:2,2021-08-17T03:44:00Z,27.7790,-90.5190,10.9,30.0,11111222
Chevron,ioos:station:wmo:42372:2,2021-08-17T03:54:00Z,27.7790,-90.5190,11.1,29.8,11111222
Chevron,ioos:station:wmo:42372:2,2021-08-17T04:04:00Z,27.7790,-90.5190,11.1,29.8,11111222
Chevron,ioos:station:wmo:42372:2,2021-08-17T04:14:00Z,27.7790,-90.5190,11.1,29.8,11111222
Chevron,ioos:station:wmo:42372:2,2021-08-17T04:24:00Z,27.7790,-90.5190,10.9,29.8,11111222
Chevron,ioos:station:wmo:42372:2,2021-08-17T04:34:00Z,27.7790,-90.5190,10.8,29.9,11111222
Chevron,ioos:station:wmo:42372:2,2021-08-17T04:44:00Z,27.7790,-90.5190,10.8,30.2,11111222
Chevron,ioos:station:wmo:42372:2,2021-08-17T04:54:00Z,27.7790,-90.5190,10.8,30.3,11111222
Chevron,ioos:station:wmo:42372:2,2021-08-17T05:04:00Z,27.7790,-90.5190,11.0,30.2,11111222
Chevron,ioos:station:wmo:42372:2,2021-08-17T05:14:00Z,27.7790,-90.5190,10.8,30.1,11111222
Chevron,ioos:station:wmo:42372:2,2021-08-17T05:24:00Z,27.7790,-90.5190,10.9,30.1,11111222
Chevron,ioos:station:wmo:42372:2,2021-08-17T05:34:00Z,27.7790,-90.5190,10.8,30.1,11111222
Chevron,ioos:station:wmo:42372:2,2021-08-17T05:44:00Z,27.7790,-90.5190,10.9,30.2,11111222
Chevron,ioos:station:wmo:42372:2,2021-08-17T05:54:00Z,27.7790,-90.5190,10.7,30.3,11111222
Chevron,ioos:station:wmo:42372:2,2021-08-17T06:04:00Z,27.7790,-90.5190,10.9,30.1,11111222
Chevron,ioos:station:wmo:42372:2,2021-08-17T06:14:00Z,27.7790,-90.5190,10.9,30.0,11111222
Chevron,ioos:station:wmo:42372:2,2021-08-17T06:24:00Z,27.7790,-90.5190,10.8,30.0,11111222
Chevron,ioos:station:wmo:42372:2,2021-08-17T06:34:00Z,27.7790,-90.5190,10.8,30.1,11111222
Chevron,ioos:station:wmo:42372:2,2021-08-17T06:44:00Z,27.7790,-90.5190,10.8,30.3,11111222
Chevron,ioos:station:wmo:42372:2,2021-08-17T06:54:00Z,27.7790,-90.5190,10.8,30.3,11111222
Chevron,ioos:station:wmo:42372:2,2021-08-17T07:04:00Z,27.7790,-90.5190,10.9,30.3,11111222
Chevron,ioos:station:wmo:42372:2,2021-08-17T07:14:00Z,27.7790,-90.5190,10.7,30.2,11111222
Chevron,ioos:station:wmo:42372:2,2021-08-17T07:24:00Z,27.7790,-90.5190,10.9,30.0,11111222
Chevron,ioos:station:wmo:42372:2,2021-08-17T07:34:00Z,27.7790,-90.5190,10.9,30.1,11111222
Chevron,ioos:station:wmo:42372:2,2021-08-17T07:44:00Z,27.7790,-90.5190,10.8,30.0,11111222
Chevron,ioos:station:wmo:42372:2,2021-08-17T07:54:00Z,27.7790,-90.5190,11.0,30.0,11111222
Chevron,ioos:station:wmo:42372:2,2021-08-17T08:04:00Z,27.7790,-90.5190,11.0,29.9,11111222
Chevron,ioos:station:wmo:42372:2,2021-08-17T08:14:00Z,27.7790,-90.5190,10.8,30.0,11111222
Chevron,ioos:station:wmo:42372:2,2021-08-17T08:24:00Z,27.7790,-90.5190,10.9,29.9,11111222
Chevron,ioos:station:wmo:42372:2,2021-08-17T08:34:00Z,27.7790,-90.5190,11.1,29.8,11111222
Chevron,ioos:station:wmo:42372:2,2021-08-17T08:44:00Z,27.7790,-90.5190,11.0,29.8,11111222
Chevron,ioos:station:wmo:42372:2,2021-08-17T08:54:00Z,27.7790,-90.5190,11.0,29.8,11111222
Chevron,ioos:station:wmo:42372:2,2021-08-17T09:04:00Z,27.7790,-90.5190,11.1,29.8,11111222
Chevron,ioos:station:wmo:42372:2,2021-08-17T09:14:00Z,27.7790,-90.5190,10.9,30.0,11111222
Chevron,ioos:station:wmo:42372:2,2021-08-17T09:24:00Z,27.7790,-90.5190,10.9,29.9,11111222
Chevron,ioos:station:wmo:42372:2,2021-08-17T09:34:00Z,27.7790,-90.5190,11.2,29.8,11111222
Chevron,ioos:station:wmo:42372:2,2021-08-17T09:44:00Z,27.7790,-90.5190,11.2,29.6,11111222
Chevron,ioos:station:wmo:42372:2,2021-08-17T09:54:00Z,27.7790,-90.5190,11.0,29.6,11111222
Chevron,ioos:station:wmo:42372:2,2021-08-17T10:04:00Z,27.7790,-90.5190,11.1,29.6,11111222
Chevron,ioos:station:wmo:42372:2,2021-08-17T10:14:00Z,27.7790,-90.5190,11.1,29.5,11111222
Chevron,ioos:station:wmo:42372:2,2021-08-17T10:24:00Z,27.7790,-90.5190,11.1,29.6,11111222
Chevron,ioos:station:wmo:42372:2,2021-08-17T10:34:00Z,27.7790,-90.5190,11.2,29.7,11111222
Chevron,ioos:station:wmo:42372:2,2021-08-17T10:44:00Z,27.7790,-90.5190,11.1,29.6,11111222
Chevron,ioos:station:wmo:42372:2,2021-08-17T10:54:00Z,27.7790,-90.5190,11.2,29.6,11111222
Chevron,ioos:station:wmo:42372:2,2021-08-17T11:04:00Z,27.7790,-90.5190,11.2,29.6,11111222
Chevron,ioos:station:wmo:42372:2,2021-08-17T11:14:00Z,27.7790,-90.5190,11.0,29.8,11111222
Chevron,ioos:station:wmo:42372:2,2021-08-17T11:24:00Z,27.7790,-90.5190,11.0,29.8,11111222
Chevron,ioos:station:wmo:42372:2,2021-08-17T11:34:00Z,27.7790,-90.5190,11.0,29.8,11111222
Chevron,ioos:station:wmo:42372:2,2021-08-17T11:44:00Z,27.7790,-90.5190,11.1,29.6,11111222
Chevron,ioos:station:wmo:42372:2,2021-08-17T11:54:00Z,27.7790,-90.5190,11.1,29.6,11111222
Chevron,ioos:station:wmo:42372:2,2021-08-17T12:04:00Z,27.7790,-90.5190,11.0,29.7,11111222
Chevron,ioos:station:wmo:42372:2,2021-08-17T12:14:00Z,27.7790,-90.5190,11.1,29.6,11111222
Chevron,ioos:station:wmo:42372:2,2021-08-17T12:24:00Z,27.7790,-90.5190,11.2,29.7,11111222
Chevron,ioos:station:wmo:42372:2,2021-08-17T12:34:00Z,27.7790,-90.5190,11.0,29.6,11111222
Chevron,ioos:station:wmo:42372:2,2021-08-17T12:44:00Z,27.7790,-90.5190,11.1,29.6,11111222
Chevron,ioos:station:wmo:42372:2,2021-08-17T12:54:00Z,27.7790,-90.5190,11.1,29.6,11111222
Chevron,ioos:station:wmo:42372:2,2021-08-17T13:04:00Z,27.7790,-90.5190,11.1,29.6,11111222
Chevron,ioos:station:wmo:42372:2,2021-08-17T13:14:00Z,27.7790,-90.5190,11.1,29.6,11111222
Chevron,ioos:station:wmo:42372:2,2021-08-17T13:24:00Z,27.7790,-90.5190,11.0,29.6,11111222
Chevron,ioos:station:wmo:42372:2,2021-08-17T13:34:00Z,27.7790,-90.5190,11.0,29.6,11111222
Chevron,ioos:station:wmo:42372:2,2021-08-17T13:44:00Z,27.7790,-90.5190,11.2,29.6,11111222
Chevron,ioos:station:wmo:42372:2,2021-08-17T13:54:00Z,27.7790,-90.5190,11.1,29.6,11111222
Chevron,ioos:station:wmo:42372:2,2021-08-17T14:04:00Z,27.7790,-90.5190,10.9,29.7,11111222
Chevron,ioos:station:wmo:42372:2,2021-08-17T14:14:00Z,27.7790,-90.5190,11.0,29.8,11111222